"FRM_AIS_EDR_2270.DAT           ",2005-10-20T08:05:34.83 ,"1/0077875529.54562",    0,    0,  274896,"AIS","B1","B1","B1","B1","PISd",0,0,0,0,"B1", 0,15,   0, 0,    0,"AIS","N/A    ","OK ","OK ",    001177.135,    -076.480,    0114.938,    0001.281,    0083.497
"FRM_AIS_EDR_2270.DAT           ",2005-10-20T08:05:42.38 ,"1/0077875537.24625",    0,    1,  274896,"AIS","B1","B1","B1","B1","PISd",0,0,0,0,"B1", 0,15,   0, 0,    0,"AIS","N/A    ","OK ","OK ",    001166.749,    -076.797,    0115.269,    0001.306,    0083.174
"FRM_AIS_EDR_2270.DAT           ",2005-10-20T08:05:49.92 ,"1/0077875544.60225",    0,    2,  274896,"AIS","B1","B1","B1","B1","PISd",0,0,0,0,"B1", 0,15,   0, 0,    0,"AIS","N/A    ","OK ","OK ",    001156.394,    -077.115,    0115.619,    0001.331,    0082.848
"FRM_AIS_EDR_2270.DAT           ",2005-10-20T08:05:57.46 ,"1/0077875552.30288",    0,    3,  274896,"AIS","B1","B1","B1","B1","PISd",0,0,0,0,"B1", 0,15,   0, 0,    0,"AIS","N/A    ","OK ","OK ",    001146.071,    -077.434,    0115.990,    0001.358,    0082.522
"FRM_AIS_EDR_2270.DAT           ",2005-10-20T08:06:05.01 ,"1/0077875560.00352",    0,    4,  274896,"AIS","B1","B1","B1","B1","PISd",0,0,0,0,"B1", 0,15,   0, 0,    0,"AIS","N/A    ","OK ","OK ",    001135.779,    -077.754,    0116.384,    0001.386,    0082.193
"FRM_AIS_EDR_2270.DAT           ",2005-10-20T08:06:12.55 ,"1/0077875567.35951",    0,    5,  274896,"AIS","B1","B1","B1","B1","PISd",0,0,0,0,"B1", 0,15,   0, 0,    0,"AIS","N/A    ","OK ","OK ",    001125.520,    -078.074,    0116.802,    0001.416,    0081.864
"FRM_AIS_EDR_2270.DAT           ",2005-10-20T08:06:20.09 ,"1/0077875575.06015",    0,    6,  274896,"AIS","B1","B1","B1","B1","PISd",0,0,0,0,"B1", 0,15,   0, 0,    0,"AIS","N/A    ","OK ","OK ",    001115.294,    -078.395,    0117.247,    0001.448,    0081.533
"FRM_AIS_EDR_2270.DAT           ",2005-10-20T08:06:27.64 ,"1/0077875582.41614",    0,    7,  274896,"AIS","B1","B1","B1","B1","PISd",0,0,0,0,"B1", 0,15,   0, 0,    0,"AIS","N/A    ","OK ","OK ",    001105.101,    -078.717,    0117.720,    0001.481,    0081.200
"FRM_AIS_EDR_2270.DAT           ",2005-10-20T08:06:35.18 ,"1/0077875590.11677",    0,    8,  274896,"AIS","B1","B1","B1","B1","PISd",0,0,0,0,"B1", 0,15,   0, 0,    0,"AIS","N/A    ","OK ","OK ",    001094.941,    -079.039,    0118.226,    0001.517,    0080.866
"FRM_AIS_EDR_2270.DAT           ",2005-10-20T08:06:42.72 ,"1/0077875597.47277",    0,    9,  274896,"AIS","B1","B1","B1","B1","PISd",0,0,0,0,"B1", 0,15,   0, 0,    0,"AIS","N/A    ","OK ","OK ",    001084.816,    -079.362,    0118.766,    0001.555,    0080.530
"FRM_AIS_EDR_2270.DAT           ",2005-10-20T08:06:50.26 ,"1/0077875605.17340",    0,   10,  274896,"AIS","B1","B1","B1","B1","PISd",0,0,0,0,"B1", 0,15,   0, 0,    0,"AIS","N/A    ","OK ","OK ",    001074.726,    -079.686,    0119.344,    0001.596,    0080.193
"FRM_AIS_EDR_2270.DAT           ",2005-10-20T08:06:57.81 ,"1/0077875612.52940",    0,   11,  274896,"AIS","B1","B1","B1","B1","PISd",0,0,0,0,"B1", 0,15,   0, 0,    0,"AIS","N/A    ","OK ","OK ",    001064.671,    -080.009,    0119.964,    0001.639,    0079.854
"FRM_AIS_EDR_2270.DAT           ",2005-10-20T08:07:05.35 ,"1/0077875620.23003",    0,   12,  274896,"AIS","B1","B1","B1","B1","PISd",0,0,0,0,"B1", 0,15,   0, 0,    0,"AIS","N/A    ","OK ","OK ",    001054.651,    -080.333,    0120.631,    0001.685,    0079.514
"FRM_AIS_EDR_2270.DAT           ",2005-10-20T08:07:12.89 ,"1/0077875627.58603",    0,   13,  274896,"AIS","B1","B1","B1","B1","PISd",0,0,0,0,"B1", 0,15,   0, 0,    0,"AIS","N/A    ","OK ","OK ",    001044.668,    -080.656,    0121.348,    0001.735,    0079.172
"FRM_AIS_EDR_2270.DAT           ",2005-10-20T08:07:20.44 ,"1/0077875635.28666",    0,   14,  274896,"AIS","B1","B1","B1","B1","PISd",0,0,0,0,"B1", 0,15,   0, 0,    0,"AIS","N/A    ","OK ","OK ",    001034.722,    -080.980,    0122.123,    0001.789,    0078.829
"FRM_AIS_EDR_2270.DAT           ",2005-10-20T08:07:27.98 ,"1/0077875642.64266",    0,   15,  274896,"AIS","B1","B1","B1","B1","PISd",0,0,0,0,"B1", 0,15,   0, 0,    0,"AIS","N/A    ","OK ","OK ",    001024.813,    -081.302,    0122.960,    0001.847,    0078.484
"FRM_AIS_EDR_2270.DAT           ",2005-10-20T08:07:35.52 ,"1/0077875650.34329",    0,   16,  274896,"AIS","B1","B1","B1","B1","PISd",0,0,0,0,"B1", 0,15,   0, 0,    0,"AIS","N/A    ","OK ","OK ",    001014.942,    -081.625,    0123.868,    0001.909,    0078.138
"FRM_AIS_EDR_2270.DAT           ",2005-10-20T08:07:43.07 ,"1/0077875658.04392",    0,   17,  274896,"AIS","B1","B1","B1","B1","PISd",0,0,0,0,"B1", 0,15,   0, 0,    0,"AIS","N/A    ","OK ","OK ",    001005.109,    -081.946,    0124.855,    0001.977,    0077.790
"FRM_AIS_EDR_2270.DAT           ",2005-10-20T08:07:50.61 ,"1/0077875665.39992",    0,   18,  274896,"AIS","B1","B1","B1","B1","PISd",0,0,0,0,"B1", 0,15,   0, 0,    0,"AIS","N/A    ","OK ","OK ",    000995.316,    -082.266,    0125.931,    0002.051,    0077.440
"FRM_AIS_EDR_2270.DAT           ",2005-10-20T08:07:58.15 ,"1/0077875673.10055",    0,   19,  274896,"AIS","B1","B1","B1","B1","PISd",0,0,0,0,"B1", 0,15,   0, 0,    0,"AIS","N/A    ","OK ","OK ",    000985.561,    -082.584,    0127.108,    0002.131,    0077.089
"FRM_AIS_EDR_2270.DAT           ",2005-10-20T08:08:05.70 ,"1/0077875680.45655",    0,   20,  274896,"AIS","B1","B1","B1","B1","PISd",0,0,0,0,"B1", 0,15,   0, 0,    0,"AIS","N/A    ","OK ","OK ",    000975.847,    -082.900,    0128.397,    0002.219,    0076.737
"FRM_AIS_EDR_2270.DAT           ",2005-10-20T08:08:13.24 ,"1/0077875688.15718",    0,   21,  274896,"AIS","B1","B1","B1","B1","PISd",0,0,0,0,"B1", 0,15,   0, 0,    0,"AIS","N/A    ","OK ","OK ",    000966.173,    -083.214,    0129.814,    0002.316,    0076.383
"FRM_AIS_EDR_2270.DAT           ",2005-10-20T08:08:20.78 ,"1/0077875695.51318",    0,   22,  274896,"AIS","B1","B1","B1","B1","PISd",0,0,0,0,"B1", 0,15,   0, 0,    0,"AIS","N/A    ","OK ","OK ",    000956.541,    -083.524,    0131.378,    0002.422,    0076.027
"FRM_AIS_EDR_2270.DAT           ",2005-10-20T08:08:28.33 ,"1/0077875703.21381",    0,   23,  274896,"AIS","B1","B1","B1","B1","PISd",0,0,0,0,"B1", 0,15,   0, 0,    0,"AIS","N/A    ","OK ","OK ",    000946.950,    -083.830,    0133.107,    0002.540,    0075.670
"FRM_AIS_EDR_2270.DAT           ",2005-10-20T08:08:35.87 ,"1/0077875710.56981",    0,   24,  274896,"AIS","B1","B1","B1","B1","PISd",0,0,0,0,"B1", 0,15,   0, 0,    0,"AIS","N/A    ","OK ","OK ",    000937.401,    -084.131,    0135.027,    0002.670,    0075.311
"FRM_AIS_EDR_2270.DAT           ",2005-10-20T08:08:43.41 ,"1/0077875718.27044",    0,   25,  274896,"AIS","B1","B1","B1","B1","PISd",0,0,0,0,"B1", 0,15,   0, 0,    0,"AIS","N/A    ","OK ","OK ",    000927.895,    -084.426,    0137.164,    0002.814,    0074.950
"FRM_AIS_EDR_2270.DAT           ",2005-10-20T08:08:50.96 ,"1/0077875725.62643",    0,   26,  274896,"AIS","B1","B1","B1","B1","PISd",0,0,0,0,"B1", 0,15,   0, 0,    0,"AIS","N/A    ","OK ","OK ",    000918.432,    -084.713,    0139.550,    0002.975,    0074.588
"FRM_AIS_EDR_2270.DAT           ",2005-10-20T08:08:58.50 ,"1/0077875733.32707",    0,   27,  274896,"AIS","B1","B1","B1","B1","PISd",0,0,0,0,"B1", 0,15,   0, 0,    0,"AIS","N/A    ","OK ","OK ",    000909.013,    -084.991,    0142.219,    0003.155,    0074.225
"FRM_AIS_EDR_2270.DAT           ",2005-10-20T08:09:06.04 ,"1/0077875741.02770",    0,   28,  274896,"AIS","B1","B1","B1","B1","PISd",0,0,0,0,"B1", 0,15,   0, 0,    0,"AIS","N/A    ","OK ","OK ",    000899.638,    -085.258,    0145.212,    0003.357,    0073.859
"FRM_AIS_EDR_2270.DAT           ",2005-10-20T08:09:13.59 ,"1/0077875748.38370",    0,   29,  274896,"AIS","B1","B1","B1","B1","PISd",0,0,0,0,"B1", 0,15,   0, 0,    0,"AIS","N/A    ","OK ","OK ",    000890.309,    -085.511,    0148.569,    0003.583,    0073.493
"FRM_AIS_EDR_2270.DAT           ",2005-10-20T08:09:21.13 ,"1/0077875756.08433",    0,   30,  274896,"AIS","B1","B1","B1","B1","PISd",0,0,0,0,"B1", 0,15,   0, 0,    0,"AIS","N/A    ","OK ","OK ",    000881.025,    -085.748,    0152.333,    0003.836,    0073.124
"FRM_AIS_EDR_2270.DAT           ",2005-10-20T08:09:28.67 ,"1/0077875763.44032",    0,   31,  274896,"AIS","B1","B1","B1","B1","PISd",0,0,0,0,"B1", 0,15,   0, 0,    0,"AIS","N/A    ","OK ","OK ",    000871.787,    -085.965,    0156.542,    0004.118,    0072.754
"FRM_AIS_EDR_2270.DAT           ",2005-10-20T08:09:36.22 ,"1/0077875771.14096",    0,   32,  274896,"AIS","B1","B1","B1","B1","PISd",0,0,0,0,"B1", 0,15,   0, 0,    0,"AIS","N/A    ","OK ","OK ",    000862.596,    -086.158,    0161.223,    0004.433,    0072.383
"FRM_AIS_EDR_2270.DAT           ",2005-10-20T08:09:43.76 ,"1/0077875778.49695",    0,   33,  274896,"AIS","B1","B1","B1","B1","PISd",0,0,0,0,"B1", 0,15,   0, 0,    0,"AIS","N/A    ","OK ","OK ",    000853.453,    -086.323,    0166.388,    0004.779,    0072.009
"FRM_AIS_EDR_2270.DAT           ",2005-10-20T08:09:51.30 ,"1/0077875786.19759",    0,   34,  274896,"AIS","B1","B1","B1","B1","PISd",0,0,0,0,"B1", 0,15,   0, 0,    0,"AIS","N/A    ","OK ","OK ",    000844.357,    -086.456,    0172.015,    0005.156,    0071.635
"FRM_AIS_EDR_2270.DAT           ",2005-10-20T08:09:58.84 ,"1/0077875793.55358",    0,   35,  274896,"AIS","B1","B1","B1","B1","PISd",0,0,0,0,"B1", 0,15,   0, 0,    0,"AIS","N/A    ","OK ","OK ",    000835.310,    -086.553,    0178.046,    0005.560,    0071.258
"FRM_AIS_EDR_2270.DAT           ",2005-10-20T08:10:06.39 ,"1/0077875801.25422",    0,   36,  274896,"AIS","B1","B1","B1","B1","PISd",0,0,0,0,"B1", 0,15,   0, 0,    0,"AIS","N/A    ","OK ","OK ",    000826.312,    -086.609,    -175.622,    0005.984,    0070.880
"FRM_AIS_EDR_2270.DAT           ",2005-10-20T08:10:13.93 ,"1/0077875808.61021",    0,   37,  274896,"AIS","B1","B1","B1","B1","PISd",0,0,0,0,"B1", 0,15,   0, 0,    0,"AIS","N/A    ","OK ","OK ",    000817.364,    -086.623,    -169.130,    0006.419,    0070.501
"FRM_AIS_EDR_2270.DAT           ",2005-10-20T08:10:21.47 ,"1/0077875816.31084",    0,   38,  274896,"AIS","B1","B1","B1","B1","PISd",0,0,0,0,"B1", 0,15,   0, 0,    0,"AIS","N/A    ","OK ","OK ",    000808.466,    -086.592,    -162.644,    0006.853,    0070.119
"FRM_AIS_EDR_2270.DAT           ",2005-10-20T08:10:29.02 ,"1/0077875824.01148",    0,   39,  274896,"AIS","B1","B1","B1","B1","PISd",0,0,0,0,"B1", 0,15,   0, 0,    0,"AIS","N/A    ","OK ","OK ",    000799.619,    -086.518,    -156.326,    0007.277,    0069.736
"FRM_AIS_EDR_2270.DAT           ",2005-10-20T08:10:36.56 ,"1/0077875831.36747",    0,   40,  274896,"AIS","B1","B1","B1","B1","PISd",0,0,0,0,"B1", 0,15,   0, 0,    0,"AIS","N/A    ","OK ","OK ",    000790.823,    -086.403,    -150.317,    0007.679,    0069.352
"FRM_AIS_EDR_2270.DAT           ",2005-10-20T08:10:44.10 ,"1/0077875839.06811",    0,   41,  274896,"AIS","B1","B1","B1","B1","PISd",0,0,0,0,"B1", 0,15,   0, 0,    0,"AIS","N/A    ","OK ","OK ",    000782.080,    -086.250,    -144.717,    0008.055,    0068.966
"FRM_AIS_EDR_2270.DAT           ",2005-10-20T08:10:51.65 ,"1/0077875846.42410",    0,   42,  274896,"AIS","B1","B1","B1","B1","PISd",0,0,0,0,"B1", 0,15,   0, 0,    0,"AIS","N/A    ","OK ","OK ",    000773.390,    -086.064,    -139.582,    0008.399,    0068.578
"FRM_AIS_EDR_2270.DAT           ",2005-10-20T08:10:59.19 ,"1/0077875854.12473",    0,   43,  274896,"AIS","B1","B1","B1","B1","PISd",0,0,0,0,"B1", 0,15,   0, 0,    0,"AIS","N/A    ","OK ","OK ",    000764.753,    -085.847,    -134.929,    0008.711,    0068.189
"FRM_AIS_EDR_2270.DAT           ",2005-10-20T08:11:06.73 ,"1/0077875861.48073",    0,   44,  274896,"AIS","B1","B1","B1","B1","PISd",0,0,0,0,"B1", 0,15,   0, 0,    0,"AIS","N/A    ","OK ","OK ",    000756.170,    -085.604,    -130.749,    0008.992,    0067.798
"FRM_AIS_EDR_2270.DAT           ",2005-10-20T08:11:14.28 ,"1/0077875869.18136",    0,   45,  274896,"AIS","B1","B1","B1","B1","PISd",0,0,0,0,"B1", 0,15,   0, 0,    0,"AIS","N/A    ","OK ","OK ",    000747.641,    -085.339,    -127.011,    0009.243,    0067.405
"FRM_AIS_EDR_2270.DAT           ",2005-10-20T08:11:21.82 ,"1/0077875876.53736",    0,   46,  274896,"AIS","B1","B1","B1","B1","PISd",0,0,0,0,"B1", 0,15,   0, 0,    0,"AIS","N/A    ","OK ","OK ",    000739.168,    -085.056,    -123.677,    0009.467,    0067.011
"FRM_AIS_EDR_2270.DAT           ",2005-10-20T08:11:29.36 ,"1/0077875884.23799",    0,   47,  274896,"AIS","B1","B1","B1","B1","PISd",0,0,0,0,"B1", 0,15,   0, 0,    0,"AIS","N/A    ","OK ","OK ",    000730.751,    -084.755,    -120.705,    0009.668,    0066.615
"FRM_AIS_EDR_2270.DAT           ",2005-10-20T08:11:36.91 ,"1/0077875891.59398",    0,   48,  274896,"AIS","B1","B1","B1","B1","PISd",0,0,0,0,"B1", 0,15,   0, 0,    0,"AIS","N/A    ","OK ","OK ",    000722.390,    -084.441,    -118.054,    0009.846,    0066.218
"FRM_AIS_EDR_2270.DAT           ",2005-10-20T08:11:44.45 ,"1/0077875899.29462",    0,   49,  274896,"AIS","B1","B1","B1","B1","PISd",0,0,0,0,"B1", 0,15,   0, 0,    0,"AIS","N/A    ","OK ","OK ",    000714.087,    -084.115,    -115.684,    0010.007,    0065.819
"FRM_AIS_EDR_2270.DAT           ",2005-10-20T08:11:51.99 ,"1/0077875906.65061",    0,   50,  274896,"AIS","B1","B1","B1","B1","PISd",0,0,0,0,"B1", 0,15,   0, 0,    0,"AIS","N/A    ","OK ","OK ",    000705.841,    -083.778,    -113.561,    0010.150,    0065.418
"FRM_AIS_EDR_2270.DAT           ",2005-10-20T08:11:59.54 ,"1/0077875914.35125",    0,   51,  274896,"AIS","B1","B1","B1","B1","PISd",0,0,0,0,"B1", 0,15,   0, 0,    0,"AIS","N/A    ","OK ","OK ",    000697.654,    -083.431,    -111.653,    0010.279,    0065.016
"FRM_AIS_EDR_2270.DAT           ",2005-10-20T08:12:07.08 ,"1/0077875922.05188",    0,   52,  274896,"AIS","B1","B1","B1","B1","PISd",0,0,0,0,"B1", 0,15,   0, 0,    0,"AIS","N/A    ","OK ","OK ",    000689.526,    -083.077,    -109.933,    0010.396,    0064.612
"FRM_AIS_EDR_2270.DAT           ",2005-10-20T08:12:14.62 ,"1/0077875929.40787",    0,   53,  274896,"AIS","B1","B1","B1","B1","PISd",0,0,0,0,"B1", 0,15,   0, 0,    0,"AIS","N/A    ","OK ","OK ",    000681.457,    -082.715,    -108.379,    0010.502,    0064.206
"FRM_AIS_EDR_2270.DAT           ",2005-10-20T08:12:22.17 ,"1/0077875937.10851",    0,   54,  274896,"AIS","B1","B1","B1","B1","PISd",0,0,0,0,"B1", 0,15,   0, 0,    0,"AIS","N/A    ","OK ","OK ",    000673.449,    -082.347,    -106.969,    0010.598,    0063.799
"FRM_AIS_EDR_2270.DAT           ",2005-10-20T08:12:29.71 ,"1/0077875944.46450",    0,   55,  274896,"AIS","B1","B1","B1","B1","PISd",0,0,0,0,"B1", 0,15,   0, 0,    0,"AIS","N/A    ","OK ","OK ",    000665.502,    -081.973,    -105.687,    0010.685,    0063.390
"FRM_AIS_EDR_2270.DAT           ",2005-10-20T08:12:37.25 ,"1/0077875952.16514",    0,   56,  274896,"AIS","B1","B1","B1","B1","PISd",0,0,0,0,"B1", 0,15,   0, 0,    0,"AIS","N/A    ","OK ","OK ",    000657.617,    -081.594,    -104.517,    0010.765,    0062.980
"FRM_AIS_EDR_2270.DAT           ",2005-10-20T08:12:44.80 ,"1/0077875959.52113",    0,   57,  274896,"AIS","B1","B1","B1","B1","PISd",0,0,0,0,"B1", 0,15,   0, 0,    0,"AIS","N/A    ","OK ","OK ",    000649.794,    -081.210,    -103.446,    0010.839,    0062.568
"FRM_AIS_EDR_2270.DAT           ",2005-10-20T08:12:52.34 ,"1/0077875967.22176",    0,   58,  274896,"AIS","B1","B1","B1","B1","PISd",0,0,0,0,"B1", 0,15,   0, 0,    0,"AIS","N/A    ","OK ","OK ",    000642.034,    -080.822,    -102.463,    0010.906,    0062.154
"FRM_AIS_EDR_2270.DAT           ",2005-10-20T08:12:59.88 ,"1/0077875974.57776",    0,   59,  274896,"AIS","B1","B1","B1","B1","PISd",0,0,0,0,"B1", 0,15,   0, 0,    0,"AIS","N/A    ","OK ","OK ",    000634.337,    -080.430,    -101.559,    0010.969,    0061.739
"FRM_AIS_EDR_2270.DAT           ",2005-10-20T08:13:07.43 ,"1/0077875982.27839",    0,   60,  274896,"AIS","B1","B1","B1","B1","PISd",0,0,0,0,"B1", 0,15,   0, 0,    0,"AIS","N/A    ","OK ","OK ",    000626.705,    -080.033,    -100.724,    0011.026,    0061.322
"FRM_AIS_EDR_2270.DAT           ",2005-10-20T08:13:14.97 ,"1/0077875989.63439",    0,   61,  274896,"AIS","B1","B1","B1","B1","PISd",0,0,0,0,"B1", 0,15,   0, 0,    0,"AIS","N/A    ","OK ","OK ",    000619.138,    -079.633,    -099.953,    0011.080,    0060.904
"FRM_AIS_EDR_2270.DAT           ",2005-10-20T08:13:22.51 ,"1/0077875997.33502",    0,   62,  274896,"AIS","B1","B1","B1","B1","PISd",0,0,0,0,"B1", 0,15,   0, 0,    0,"AIS","N/A    ","OK ","OK ",    000611.637,    -079.230,    -099.238,    0011.129,    0060.484
"FRM_AIS_EDR_2270.DAT           ",2005-10-20T08:13:30.05 ,"1/0077876005.03565",    0,   63,  274896,"AIS","B1","B1","B1","B1","PISd",0,0,0,0,"B1", 0,15,   0, 0,    0,"AIS","N/A    ","OK ","OK ",    000604.201,    -078.824,    -098.573,    0011.176,    0060.062
"FRM_AIS_EDR_2270.DAT           ",2005-10-20T08:13:37.60 ,"1/0077876012.39165",    0,   64,  274896,"AIS","B1","B1","B1","B1","PISd",0,0,0,0,"B1", 0,15,   0, 0,    0,"AIS","N/A    ","OK ","OK ",    000596.833,    -078.414,    -097.955,    0011.219,    0059.639
"FRM_AIS_EDR_2270.DAT           ",2005-10-20T08:13:45.14 ,"1/0077876020.09228",    0,   65,  274896,"AIS","B1","B1","B1","B1","PISd",0,0,0,0,"B1", 0,15,   0, 0,    0,"AIS","N/A    ","OK ","OK ",    000589.532,    -078.002,    -097.378,    0011.259,    0059.215
"FRM_AIS_EDR_2270.DAT           ",2005-10-20T08:13:52.68 ,"1/0077876027.44828",    0,   66,  274896,"AIS","B1","B1","B1","B1","PISd",0,0,0,0,"B1", 0,15,   0, 0,    0,"AIS","N/A    ","OK ","OK ",    000582.299,    -077.587,    -096.839,    0011.297,    0058.788
"FRM_AIS_EDR_2270.DAT           ",2005-10-20T08:14:00.23 ,"1/0077876035.14891",    0,   67,  274896,"AIS","B1","B1","B1","B1","PISd",0,0,0,0,"B1", 0,15,   0, 0,    0,"AIS","N/A    ","OK ","OK ",    000575.136,    -077.170,    -096.335,    0011.333,    0058.360
"FRM_AIS_EDR_2270.DAT           ",2005-10-20T08:14:07.77 ,"1/0077876042.50490",    0,   68,  274896,"AIS","B1","B1","B1","B1","PISd",0,0,0,0,"B1", 0,15,   0, 0,    0,"AIS","N/A    ","OK ","OK ",    000568.041,    -076.749,    -095.862,    0011.367,    0057.931
"FRM_AIS_EDR_2270.DAT           ",2005-10-20T08:14:15.31 ,"1/0077876050.20554",    0,   69,  274896,"AIS","B1","B1","B1","B1","PISd",0,0,0,0,"B1", 0,15,   0, 0,    0,"AIS","N/A    ","OK ","OK ",    000561.017,    -076.327,    -095.418,    0011.398,    0057.500
"FRM_AIS_EDR_2270.DAT           ",2005-10-20T08:14:22.86 ,"1/0077876057.56153",    0,   70,  274896,"AIS","B1","B1","B1","B1","PISd",0,0,0,0,"B1", 0,15,   0, 0,    0,"AIS","N/A    ","OK ","OK ",    000554.064,    -075.902,    -095.000,    0011.428,    0057.068
"FRM_AIS_EDR_2270.DAT           ",2005-10-20T08:14:30.40 ,"1/0077876065.26217",    0,   71,  274896,"AIS","B1","B1","B1","B1","PISd",0,0,0,0,"B1", 0,15,   0, 0,    0,"AIS","N/A    ","OK ","OK ",    000547.183,    -075.475,    -094.607,    0011.457,    0056.634
"FRM_AIS_EDR_2270.DAT           ",2005-10-20T08:14:37.94 ,"1/0077876072.61816",    0,   72,  274896,"AIS","B1","B1","B1","B1","PISd",0,0,0,0,"B1", 0,15,   0, 0,    0,"AIS","N/A    ","OK ","OK ",    000540.373,    -075.046,    -094.236,    0011.483,    0056.198
"FRM_AIS_EDR_2270.DAT           ",2005-10-20T08:14:45.49 ,"1/0077876080.31879",    0,   73,  274896,"AIS","B1","B1","B1","B1","PISd",0,0,0,0,"B1", 0,15,   0, 0,    0,"AIS","N/A    ","OK ","OK ",    000533.636,    -074.614,    -093.886,    0011.509,    0055.761
"FRM_AIS_EDR_2270.DAT           ",2005-10-20T08:14:53.03 ,"1/0077876088.01943",    0,   74,  274896,"AIS","B1","B1","B1","B1","PISd",0,0,0,0,"B1", 0,15,   0, 0,    0,"AIS","N/A    ","OK ","OK ",    000526.973,    -074.180,    -093.555,    0011.533,    0055.323
"FRM_AIS_EDR_2270.DAT           ",2005-10-20T08:15:00.57 ,"1/0077876095.37542",    0,   75,  274896,"AIS","B1","B1","B1","B1","PISd",0,0,0,0,"B1", 0,15,   0, 0,    0,"AIS","N/A    ","OK ","OK ",    000520.384,    -073.745,    -093.241,    0011.556,    0054.883
"FRM_AIS_EDR_2270.DAT           ",2005-10-20T08:15:08.12 ,"1/0077876103.07605",    0,   76,  274896,"AIS","B1","B1","B1","B1","PISd",0,0,0,0,"B1", 0,15,   0, 0,    0,"AIS","N/A    ","OK ","OK ",    000513.870,    -073.307,    -092.944,    0011.578,    0054.441
"FRM_AIS_EDR_2270.DAT           ",2005-10-20T08:15:15.66 ,"1/0077876110.43205",    0,   77,  274896,"AIS","B1","B1","B1","B1","PISd",0,0,0,0,"B1", 0,15,   0, 0,    0,"AIS","N/A    ","OK ","OK ",    000507.431,    -072.868,    -092.662,    0011.598,    0053.998
"FRM_AIS_EDR_2270.DAT           ",2005-10-20T08:15:23.20 ,"1/0077876118.13268",    0,   78,  274896,"AIS","B1","B1","B1","B1","PISd",0,0,0,0,"B1", 0,15,   0, 0,    0,"AIS","N/A    ","OK ","OK ",    000501.068,    -072.426,    -092.395,    0011.618,    0053.553
"FRM_AIS_EDR_2270.DAT           ",2005-10-20T08:15:30.75 ,"1/0077876125.48868",    0,   79,  274896,"AIS","B1","B1","B1","B1","PISd",0,0,0,0,"B1", 0,15,   0, 0,    0,"AIS","N/A    ","OK ","OK ",    000494.782,    -071.983,    -092.141,    0011.637,    0053.107
"FRM_AIS_EDR_2270.DAT           ",2005-10-20T08:15:38.29 ,"1/0077876133.18931",    0,   80,  274896,"AIS","B1","B1","B1","B1","PISd",0,0,0,0,"B1", 0,15,   0, 0,    0,"AIS","N/A    ","OK ","OK ",    000488.573,    -071.538,    -091.899,    0011.656,    0052.660
"FRM_AIS_EDR_2270.DAT           ",2005-10-20T08:15:45.83 ,"1/0077876140.54530",    0,   81,  274896,"AIS","B1","B1","B1","B1","PISd",0,0,0,0,"B1", 0,15,   0, 0,    0,"AIS","N/A    ","OK ","OK ",    000482.443,    -071.091,    -091.668,    0011.673,    0052.211
"FRM_AIS_EDR_2270.DAT           ",2005-10-20T08:15:53.38 ,"1/0077876148.24594",    0,   82,  274896,"AIS","B1","B1","B1","B1","PISd",0,0,0,0,"B1", 0,15,   0, 0,    0,"AIS","N/A    ","OK ","OK ",    000476.390,    -070.643,    -091.449,    0011.689,    0051.761
"FRM_AIS_EDR_2270.DAT           ",2005-10-20T08:16:00.92 ,"1/0077876155.60193",    0,   83,  274896,"AIS","B1","B1","B1","B1","PISd",0,0,0,0,"B1", 0,15,   0, 0,    0,"AIS","N/A    ","OK ","OK ",    000470.418,    -070.192,    -091.240,    0011.706,    0051.309
"FRM_AIS_EDR_2270.DAT           ",2005-10-20T08:16:08.46 ,"1/0077876163.30257",    0,   84,  274896,"AIS","B1","B1","B1","B1","PISd",0,0,0,0,"B1", 0,15,   0, 0,    0,"AIS","N/A    ","OK ","OK ",    000464.525,    -069.740,    -091.040,    0011.721,    0050.856
"FRM_AIS_EDR_2270.DAT           ",2005-10-20T08:16:16.01 ,"1/0077876171.00320",    0,   85,  274896,"AIS","B1","B1","B1","B1","PISd",0,0,0,0,"B1", 0,15,   0, 0,    0,"AIS","N/A    ","OK ","OK ",    000458.713,    -069.287,    -090.850,    0011.736,    0050.401
"FRM_AIS_EDR_2270.DAT           ",2005-10-20T08:16:23.55 ,"1/0077876178.35919",    0,   86,  274896,"AIS","B1","B1","B1","B1","PISd",0,0,0,0,"B1", 0,15,   0, 0,    0,"AIS","N/A    ","OK ","OK ",    000452.981,    -068.831,    -090.667,    0011.750,    0049.945
"FRM_AIS_EDR_2270.DAT           ",2005-10-20T08:16:31.09 ,"1/0077876186.05983",    0,   87,  274896,"AIS","B1","B1","B1","B1","PISd",0,0,0,0,"B1", 0,15,   0, 0,    0,"AIS","N/A    ","OK ","OK ",    000447.332,    -068.375,    -090.493,    0011.763,    0049.488
"FRM_AIS_EDR_2270.DAT           ",2005-10-20T08:16:38.63 ,"1/0077876193.41582",    0,   88,  274896,"AIS","B1","B1","B1","B1","PISd",0,0,0,0,"B1", 0,15,   0, 0,    0,"AIS","N/A    ","OK ","OK ",    000441.765,    -067.916,    -090.327,    0011.777,    0049.029
"FRM_AIS_EDR_2270.DAT           ",2005-10-20T08:16:46.18 ,"1/0077876201.11645",    0,   89,  274896,"AIS","B1","B1","B1","B1","PISd",0,0,0,0,"B1", 0,15,   0, 0,    0,"AIS","N/A    ","OK ","OK ",    000436.281,    -067.456,    -090.167,    0011.789,    0048.569
"FRM_AIS_EDR_2270.DAT           ",2005-10-20T08:16:53.72 ,"1/0077876208.47245",    0,   90,  274896,"AIS","B1","B1","B1","B1","PISd",0,0,0,0,"B1", 0,15,   0, 0,    0,"AIS","N/A    ","OK ","OK ",    000430.881,    -066.995,    -090.014,    0011.801,    0048.108